Theta_e
291 287 286 285 289 290 290 289 290 291 287 285 285 284 284 284 285 286 288 288 286 286 287 288 289 290 290 291 292 293 294 293 293 293 294 295 296 296 296 297 297 297 298 302 300 299 299 299 298 297 296 296 296 296 297 298 299 300 300 299 298 299 299 299 298 299 299 298 297 297 295 295 296 296 296 296 296 296 296 296 296 297 296 296 295 294
290 286 286 289 291 291 291 288 287 287 285 285 284 283 285 284 285 289 289 290 286 286 284 285 288 289 290 291 292 294 293 293 294 294 294 295 296 296 297 297 298 298 300 300 298 298 296 297 296 295 295 295 295 295 295 297 298 299 300 299 299 299 298 298 298 299 299 299 298 296 296 297 297 295 295 294 295 295 296 296 296 296 296 296 295 294
286 284 288 290 291 288 284 286 284 286 286 285 285 285 282 284 285 288 289 288 286 284 286 285 286 288 290 291 293 293 293 295 296 295 295 295 296 296 297 297 297 297 298 297 297 298 295 295 294 293 294 294 295 296 296 297 297 298 298 299 299 298 298 298 298 298 298 299 299 298 297 297 296 296 296 296 296 296 295 295 295 296 296 296 295 294
285 284 289 291 288 287 287 283 284 284 284 283 283 282 283 285 284 284 285 282 283 285 287 288 286 287 290 292 293 294 294 294 295 295 295 296 295 296 297 296 296 296 296 296 296 296 295 294 294 292 293 294 293 293 293 294 296 297 298 298 298 297 298 298 298 298 299 299 298 297 296 297 296 294 295 295 294 295 294 293 294 295 295 295 295 294
289 287 286 289 287 288 287 286 286 284 287 285 285 284 284 285 286 285 285 283 284 286 283 284 286 289 288 288 287 289 290 292 294 293 293 294 295 296 296 296 296 295 294 295 295 296 295 295 295 295 294 291 292 293 293 294 295 296 297 298 298 297 297 297 297 298 298 297 295 294 294 294 293 293 294 293 292 293 293 293 293 293 294 294 294 294
287 287 285 285 285 284 285 284 285 286 284 286 283 286 287 288 286 285 285 284 282 283 281 282 284 286 284 286 285 288 285 288 288 291 293 295 294 295 294 295 294 294 294 295 295 295 294 294 294 293 292 291 291 292 293 293 294 295 296 297 297 297 297 297 297 297 297 296 295 293 292 291 292 291 291 290 291 291 291 292 293 293 293 294 294 294
286 286 287 289 285 284 284 284 284 286 285 283 284 285 287 287 285 284 283 284 279 277 283 281 280 281 284 287 288 288 287 288 290 289 293 293 293 291 293 293 293 294 293 293 293 295 295 294 292 294 294 293 291 292 292 292 292 293 294 295 296 296 296 296 296 297 296 296 295 294 294 294 293 293 293 294 295 293 293 294 292 292 293 293 293 293
285 284 285 284 283 283 283 282 285 286 284 282 283 283 285 284 284 284 283 284 282 281 283 283 283 280 282 285 287 288 289 291 292 293 292 292 291 292 292 292 293 293 293 293 293 294 293 292 292 293 293 292 292 290 289 290 291 292 293 294 295 295 295 296 296 296 296 296 295 295 295 295 295 295 295 294 294 294 294 293 292 292 292 293 293 293
285 285 284 284 283 282 284 288 284 288 286 282 283 283 284 284 283 282 283 281 279 279 279 280 283 280 279 285 283 286 287 288 290 291 291 291 292 292 291 292 293 292 292 291 292 292 292 293 292 291 292 291 288 288 288 289 290 291 291 292 293 294 294 295 295 295 296 296 295 295 295 294 295 296 295 294 294 293 293 292 292 291 291 292 292 293
284 287 284 286 284 284 285 282 285 288 285 284 283 282 281 281 281 282 280 281 278 277 278 280 282 279 283 289 284 282 285 285 287 289 289 289 291 291 291 291 292 291 291 291 291 292 292 292 291 290 288 290 289 286 286 288 288 289 289 290 291 291 292 293 294 295 295 295 295 294 294 294 295 294 292 293 292 292 292 292 292 291 291 291 291 291
286 289 286 285 286 287 284 283 283 288 285 283 284 285 282 280 278 277 277 276 276 275 280 282 282 284 280 286 284 286 287 285 286 285 287 288 288 289 290 290 293 291 291 290 291 292 291 290 290 289 292 290 289 286 286 287 287 288 288 288 289 290 291 291 293 293 294 294 294 294 294 294 294 294 292 291 291 291 291 291 291 291 291 291 290 291
286 285 287 286 287 284 285 284 283 283 282 286 282 281 282 283 277 274 269 275 275 274 279 282 282 283 279 282 283 282 281 282 288 288 288 290 291 291 290 290 290 290 289 289 290 290 291 292 293 292 293 291 291 289 287 286 286 287 287 288 288 288 289 290 291 291 292 293 293 293 294 293 294 293 292 291 291 291 290 291 291 291 290 290 290 290
282 284 285 287 288 289 286 287 284 286 286 286 284 286 281 277 274 272 273 271 272 278 279 280 281 279 281 287 285 289 289 290 287 289 291 292 293 293 290 289 289 287 287 289 289 289 291 291 291 291 291 291 290 289 288 286 286 286 287 286 287 288 288 289 290 290 291 291 292 292 292 293 293 293 293 292 292 291 291 291 291 290 289 289 289 289
286 281 284 287 289 289 289 285 283 283 284 284 284 282 279 275 274 273 271 266 269 274 276 278 280 279 284 285 288 292 295 291 289 288 289 289 289 289 289 288 288 287 286 287 287 289 290 290 290 290 290 290 289 288 288 288 286 286 286 286 286 287 287 287 288 289 290 290 291 291 291 291 292 292 293 292 292 292 291 292 291 290 290 290 289 289
282 286 285 287 288 289 290 291 289 286 284 285 286 286 283 281 276 273 275 278 278 277 277 277 276 276 276 283 284 288 288 286 284 285 286 286 286 287 285 285 285 286 287 286 288 288 288 288 288 289 289 288 288 288 288 288 287 286 286 285 285 286 286 286 287 287 288 289 289 290 290 290 290 291 292 292 293 292 291 291 291 291 291 291 290 290
285 286 286 287 287 287 287 288 287 286 285 285 284 284 281 282 285 282 282 279 282 281 275 274 278 277 284 286 288 287 288 288 286 284 283 285 285 285 287 288 287 287 288 288 288 288 288 288 287 287 287 287 287 287 287 287 286 286 286 285 285 285 285 285 286 286 287 288 288 288 289 289 289 289 290 290 291 290 290 290 290 290 291 291 291 291
283 280 285 285 283 285 287 285 288 288 282 284 285 282 284 286 286 282 282 283 280 278 279 280 280 285 289 293 293 286 285 286 283 284 284 286 285 286 288 287 287 288 288 288 288 287 287 286 286 287 287 287 287 287 287 286 286 285 285 285 285 285 285 285 285 286 286 287 287 288 288 288 288 288 289 289 289 289 289 289 289 289 290 290 290 290
286 288 287 284 286 285 284 285 286 284 287 285 281 285 287 287 287 283 278 278 278 277 279 285 282 284 284 282 286 286 286 286 284 285 283 282 283 288 288 288 288 287 287 287 287 286 286 286 286 286 287 287 287 287 287 287 286 286 285 284 285 285 285 286 286 286 286 286 286 287 287 287 287 288 288 288 288 288 288 288 288 288 289 289 289 289
289 282 288 287 288 286 283 286 286 286 287 286 285 287 285 280 279 281 277 274 276 275 277 281 284 284 285 286 290 289 291 288 287 284 287 290 287 288 288 288 286 285 285 285 285 285 285 285 285 286 286 287 287 287 287 288 288 287 287 286 286 285 285 285 286 286 286 286 287 288 287 287 287 287 288 288 288 288 288 287 287 287 288 288 288 288
287 284 285 286 287 286 285 285 279 283 286 285 286 285 285 283 283 281 281 279 280 276 279 278 283 281 288 288 290 290 286 286 286 288 288 286 287 285 284 284 284 283 283 284 284 285 285 285 285 285 286 286 286 286 287 287 288 287 287 287 287 287 286 286 286 285 285 286 286 286 286 287 287 287 288 288 288 287 287 287 287 287 287 288 288 288
284 286 281 287 284 287 283 285 282 285 283 283 283 281 284 283 285 284 282 280 281 279 279 278 277 283 289 290 290 289 286 287 286 286 286 284 283 282 282 282 283 282 283 283 283 284 284 284 285 285 285 286 286 286 286 287 286 287 287 287 287 286 287 287 287 286 286 285 286 285 286 286 286 286 287 287 287 287 287 287 287 287 287 287 287 287
284 284 282 286 283 284 286 287 287 288 289 286 286 284 286 283 281 279 278 285 281 281 277 279 277 285 290 295 294 292 287 286 286 286 284 282 282 281 281 281 281 282 282 282 283 283 284 284 285 285 285 285 285 285 285 286 286 286 285 286 286 286 287 286 287 286 286 285 285 285 286 286 285 286 286 286 286 286 286 286 286 287 286 286 287 287
288 283 284 282 285 286 288 289 287 289 289 288 288 285 288 286 285 282 277 281 283 282 284 282 279 281 293 294 295 294 287 282 283 284 282 282 281 281 281 281 281 282 282 282 282 283 283 283 283 284 284 285 285 284 284 285 285 285 285 285 285 285 285 286 286 286 286 285 285 285 285 285 285 285 285 285 286 286 286 287 286 286 286 286 286 286
292 284 280 284 287 288 291 293 289 286 287 286 286 286 285 283 285 284 284 284 282 283 282 281 278 282 292 295 293 286 283 283 282 282 281 281 281 281 281 281 281 281 282 282 282 283 283 283 283 283 283 284 284 284 284 284 285 285 285 285 285 285 285 286 286 286 286 286 285 285 284 284 284 284 285 285 285 285 286 287 287 286 285 286 286 285
284 284 284 281 281 281 283 285 284 285 285 284 285 288 287 287 286 285 284 281 280 281 282 280 275 281 289 290 289 285 282 281 280 280 280 279 280 280 281 281 281 281 281 281 281 281 282 282 282 282 283 283 283 284 284 284 284 284 284 284 284 284 285 286 286 286 286 286 286 286 285 285 285 284 284 284 285 285 286 286 287 286 286 285 285 285
284 283 283 277 276 274 274 275 276 277 280 282 282 283 286 286 285 284 280 282 278 282 284 280 280 286 290 289 288 286 282 281 281 280 280 280 279 280 280 281 281 281 281 281 281 281 281 282 282 282 282 283 283 284 284 284 284 284 284 284 284 284 285 285 286 285 286 286 285 285 285 285 285 285 285 285 285 285 286 286 286 286 286 286 285 285
286 284 284 283 282 280 281 283 283 285 283 281 281 284 284 284 284 285 285 281 279 283 282 283 284 284 286 289 289 284 284 280 279 279 279 279 279 280 280 280 281 281 281 281 281 281 281 281 282 282 282 283 283 284 284 284 283 284 284 284 284 284 284 285 285 285 285 285 285 285 285 285 284 284 284 284 285 285 285 285 286 286 286 286 286 285
284 283 285 285 284 284 286 285 287 286 283 285 284 284 286 285 286 284 281 279 286 282 276 285 286 283 284 288 285 281 281 280 279 279 279 279 279 279 279 280 282 280 280 281 280 280 280 281 281 282 282 283 283 284 284 284 284 284 283 283 283 284 284 285 284 284 284 284 284 284 284 285 285 285 284 284 284 285 285 285 285 285 285 286 285 285
281 281 284 284 282 285 286 285 283 282 281 283 284 284 283 284 283 281 282 284 284 279 277 284 284 282 284 286 282 280 280 279 278 278 279 279 279 279 279 280 280 280 280 280 280 280 281 281 281 281 282 283 283 283 283 283 283 283 283 283 283 283 283 284 284 284 284 284 284 284 285 285 285 285 285 285 284 284 284 285 285 285 285 285 285 285
281 278 283 281 281 282 281 281 281 280 281 281 281 282 283 283 283 283 283 284 283 281 283 283 283 282 285 283 279 279 281 280 279 279 279 278 278 279 279 279 280 280 281 281 281 282 282 282 282 282 282 282 282 282 283 283 282 282 282 282 282 283 284 284 284 283 283 283 284 284 285 285 284 284 284 284 284 284 284 284 284 285 285 285 285 285
283 277 284 279 279 278 281 281 280 279 279 278 280 281 281 281 280 281 281 281 282 281 282 282 281 281 282 280 280 281 280 281 280 279 278 279 279 280 280 279 280 280 281 282 282 282 282 282 282 282 282 282 282 282 282 282 282 282 281 281 281 282 283 284 283 283 283 283 284 284 284 284 284 284 283 284 284 284 284 283 284 284 284 284 284 284
282 278 283 279 275 274 279 279 279 279 278 276 276 278 278 278 276 279 278 281 280 278 280 280 278 279 277 279 278 280 279 280 279 279 279 279 280 279 278 279 279 280 281 282 282 282 282 281 281 280 280 280 281 281 281 281 281 280 280 281 281 282 283 282 283 282 283 283 284 284 284 284 284 283 283 283 283 283 283 283 283 283 283 283 283 283
280 278 275 275 273 272 278 278 276 275 274 271 273 276 278 278 279 280 281 281 281 282 278 275 276 273 274 278 275 278 279 278 280 279 280 280 280 279 279 279 280 280 281 281 281 281 281 280 280 280 280 280 281 281 281 281 280 280 281 280 281 282 282 282 282 282 282 283 283 283 283 283 283 283 283 283 283 282 282 281 282 282 282 282 283 283
279 278 275 277 271 271 275 273 272 268 264 266 277 278 279 277 277 275 276 278 279 278 276 277 275 275 276 277 276 275 276 278 279 280 281 281 280 281 281 280 280 281 281 281 280 280 280 280 280 280 280 280 281 281 282 281 280 281 281 281 281 281 282 281 281 281 282 282 282 283 283 283 283 282 282 283 283 282 281 280 280 281 281 282 282 282
277 277 274 273 270 269 269 265 267 262 264 273 275 276 276 276 278 278 278 276 275 276 273 275 276 275 277 279 279 279 279 280 280 280 281 281 281 281 280 279 279 279 279 279 280 280 280 280 280 280 280 280 281 281 281 280 280 280 279 280 280 281 281 280 280 280 281 281 281 282 282 282 282 282 282 282 282 282 281 281 280 280 281 281 281 281
274 273 269 266 267 263 265 267 262 261 270 272 275 277 277 276 275 275 273 276 277 278 278 277 279 277 278 279 279 279 278 278 277 278 279 280 281 281 280 280 280 280 281 281 281 282 282 281 280 280 280 281 281 280 279 279 279 278 278 279 279 279 280 279 279 279 280 280 280 280 281 281 281 281 282 282 282 282 282 282 281 281 280 280 280 280
277 274 268 266 267 264 263 265 267 270 272 274 274 274 274 273 273 271 267 272 277 277 277 275 276 277 277 279 280 279 280 279 278 278 280 280 281 282 282 281 281 281 282 282 283 282 283 282 281 280 280 280 280 279 279 278 278 277 276 277 277 278 278 278 278 278 279 279 279 279 280 279 279 279 281 282 282 282 281 282 281 281 281 279 279 279
278 274 274 270 265 272 262 262 262 261 262 264 274 275 276 275 276 276 271 267 276 273 273 274 273 275 277 279 279 279 280 277 274 275 279 280 282 282 282 282 282 282 282 282 283 283 282 282 281 280 280 279 279 279 278 277 276 275 275 275 275 275 276 276 276 277 278 278 278 278 278 278 278 279 281 282 282 281 281 281 281 281 280 279 279 278
276 277 274 272 269 272 268 266 265 264 265 267 270 274 274 275 276 276 272 267 272 272 271 275 276 278 278 278 278 279 275 271 271 275 277 279 281 281 280 280 280 281 281 281 281 280 280 279 279 279 279 278 278 278 276 275 273 274 274 274 274 274 274 274 275 276 276 277 277 277 276 276 277 279 281 281 281 280 279 279 280 280 280 279 278 278
269 270 273 270 270 270 269 267 264 268 261 271 270 274 275 276 275 273 265 265 270 272 272 273 274 275 275 277 276 274 272 267 270 275 278 277 280 281 280 279 278 278 278 278 278 279 279 278 277 277 277 277 277 277 274 273 272 272 273 273 273 272 272 273 274 275 275 275 274 274 274 275 276 279 280 279 278 278 278 279 279 279 279 279 278 277
264 266 269 268 270 270 272 268 270 271 277 274 272 274 274 276 272 263 263 265 273 273 273 273 274 275 275 274 275 270 275 277 278 279 278 275 276 277 278 278 278 278 278 278 277 279 278 278 277 277 276 277 276 275 272 271 271 271 272 272 272 271 272 274 274 274 273 273 272 272 272 274 276 277 277 277 276 276 276 277 277 277 277 278 278 278
261 258 261 265 267 268 269 268 268 270 274 274 271 274 275 272 262 263 270 274 272 272 272 273 275 275 275 275 275 276 277 278 279 279 278 278 277 277 278 278 277 276 276 276 277 276 276 275 274 274 274 274 274 273 271 270 270 271 271 270 270 271 273 273 272 272 271 271 270 271 271 273 275 275 274 273 273 273 273 274 275 276 276 277 277 276
263 260 258 259 264 266 266 265 265 262 269 270 274 273 273 265 266 272 274 273 273 273 273 273 274 275 276 275 276 276 276 277 277 278 278 278 278 278 278 278 277 276 276 276 275 274 274 273 273 273 273 273 272 271 271 268 269 270 270 269 270 271 271 271 270 270 269 269 269 270 270 271 271 270 270 270 271 270 270 272 273 274 275 276 276 275
269 264 259 265 268 264 263 262 261 267 273 273 272 267 269 273 275 275 276 275 277 277 275 275 274 275 275 275 275 275 276 276 276 277 278 278 278 279 278 277 276 275 275 274 273 273 270 271 272 272 272 272 271 269 270 268 268 269 269 269 271 270 269 268 268 268 268 268 268 268 268 268 268 268 268 268 269 269 269 270 271 273 274 275 275 275
271 269 269 267 269 267 263 267 271 269 273 273 273 275 277 278 277 277 276 276 275 276 275 273 275 275 275 275 275 275 275 276 276 277 277 278 279 278 276 275 274 274 273 273 273 271 269 270 270 270 270 271 271 270 268 267 267 267 267 269 269 268 267 267 267 266 266 266 265 266 266 266 266 266 266 266 267 267 269 269 271 271 273 274 275 275
272 272 272 270 270 274 275 276 277 276 274 277 277 277 277 278 278 277 275 275 275 276 275 275 275 275 275 275 274 274 275 276 276 277 278 276 275 274 274 273 273 272 271 271 271 270 269 269 268 268 268 269 269 269 268 267 267 266 268 269 268 267 266 265 265 265 264 264 264 264 264 264 264 264 265 265 266 267 268 269 270 271 272 274 274 275
273 274 271 270 273 269 266 275 274 275 276 276 277 278 278 277 277 277 276 276 276 276 275 275 275 275 275 274 274 274 275 276 275 274 273 272 272 272 271 271 271 271 270 270 270 269 268 267 267 267 267 267 268 268 267 266 266 267 267 267 267 266 264 264 263 263 263 263 263 263 263 262 263 263 264 264 265 267 268 269 270 271 272 273 274 274
268 274 271 272 271 270 269 274 275 276 275 276 277 277 277 278 278 278 278 277 276 274 274 274 273 273 273 272 273 272 273 272 270 270 270 270 270 270 270 269 269 269 270 269 268 266 265 266 266 266 266 266 267 268 267 267 266 266 266 265 265 263 262 262 262 262 262 262 262 262 262 262 263 263 263 263 264 265 266 267 268 269 270 271 272 273
273 272 262 268 269 272 275 275 276 276 276 276 277 277 277 277 277 277 275 273 272 271 271 271 272 271 270 270 270 269 267 268 268 268 268 268 268 269 269 268 268 268 268 267 267 266 265 265 265 265 265 265 266 266 266 265 266 266 265 265 262 261 260 261 261 261 260 261 261 260 261 261 261 262 262 262 263 264 265 266 266 268 269 271 273 274
273 271 274 270 268 268 269 272 274 268 268 274 275 275 274 272 272 272 271 270 269 268 268 267 268 269 269 268 268 267 265 266 267 267 266 267 267 267 267 267 266 266 265 266 266 265 264 264 264 264 264 264 265 265 264 264 264 264 264 262 261 260 260 260 260 259 259 259 259 259 260 260 260 261 261 261 262 262 263 267 270 270 269 270 274 276
273 274 273 270 269 269 274 275 275 274 274 275 276 272 267 269 270 269 267 267 267 267 266 266 265 266 266 266 267 266 265 266 266 266 265 265 265 266 265 265 264 264 264 264 263 263 263 263 263 263 262 263 263 262 262 262 262 262 261 261 261 260 259 259 258 258 259 259 258 259 259 259 259 260 260 260 261 261 262 263 266 271 274 275 275 277
Wind_Speed
2 7 8 9 12 13 9 12 17 12 3 1 1 1 9 9 10 6 12 9 3 7 12 17 21 19 15 12 12 14 13 14 15 18 19 17 16 15 13 15 17 16 18 5 6 7 6 7 7 7 7 7 7 8 8 10 12 13 14 11 14 11 10 9 9 9 10 11 8 7 10 12 9 9 8 8 8 8 8 9 10 10 9 10 10 10
2 6 7 12 14 11 11 6 4 6 4 4 6 5 11 2 15 10 9 4 0 2 3 4 17 20 18 15 15 15 14 21 21 20 15 17 19 16 16 18 17 12 8 7 9 8 7 7 7 6 6 5 7 9 10 12 14 13 12 13 12 8 9 10 11 10 10 10 10 10 10 8 7 9 11 11 9 9 8 9 9 9 9 10 11 10
4 8 11 15 7 1 2 1 1 4 6 6 8 6 7 9 10 11 11 6 3 2 11 6 16 17 15 17 19 18 21 19 16 5 14 15 18 16 16 15 11 10 10 8 4 4 6 8 8 6 4 7 9 6 7 9 7 9 11 11 10 9 11 11 12 10 10 8 9 9 6 9 6 5 5 4 6 5 7 8 8 8 9 10 10 10
6 3 16 14 3 4 3 2 1 1 1 6 5 3 12 2 3 9 2 1 1 1 12 14 21 19 13 20 20 18 14 14 11 13 12 15 16 21 17 7 10 12 12 12 8 9 9 9 9 7 6 6 5 7 6 7 10 8 9 10 11 11 12 11 13 13 11 10 8 7 5 7 7 5 6 7 6 8 7 9 8 8 9 10 10 10
13 3 2 3 5 7 8 4 1 4 12 5 9 6 9 10 10 8 7 5 7 5 2 9 14 13 6 2 4 5 4 8 16 11 11 16 16 11 9 14 8 7 8 9 10 9 10 12 11 10 8 6 5 6 8 7 8 7 11 11 12 11 12 11 12 13 10 9 8 6 6 6 5 4 7 7 7 9 9 7 9 10 8 9 8 9
9 4 3 4 3 5 5 4 7 8 12 6 4 11 15 13 11 9 9 8 6 6 5 4 12 7 1 2 3 5 4 3 5 9 20 11 7 2 6 5 7 6 3 3 6 7 6 7 10 9 7 5 5 7 6 4 6 7 6 6 8 8 8 9 11 13 10 10 10 11 10 10 9 8 9 14 15 10 12 12 6 7 10 9 9 9
5 2 4 7 4 3 4 5 6 8 11 4 8 12 13 11 8 8 10 4 5 2 1 4 4 17 4 5 4 6 1 7 13 13 12 7 6 5 4 8 4 1 3 6 6 5 10 10 7 9 9 8 6 5 4 5 6 7 6 6 7 8 7 8 9 12 10 10 9 13 13 13 12 12 11 7 5 9 7 6 10 9 9 11 11 10
1 2 3 4 5 4 4 5 7 12 5 8 3 7 7 6 7 6 3 6 7 1 4 2 5 5 21 2 5 0 3 13 14 12 7 6 7 8 7 7 4 3 4 4 8 7 8 8 5 8 10 9 9 8 7 6 5 7 7 7 8 5 5 5 7 10 11 10 10 12 13 11 11 12 10 8 7 6 7 8 8 9 9 10 10 9
4 0 2 2 2 4 7 9 3 12 8 6 1 6 5 6 5 3 4 5 2 5 8 1 1 3 9 3 3 4 4 10 11 12 10 8 8 6 8 6 3 5 4 3 4 6 6 10 10 9 10 10 11 9 8 8 6 5 4 4 5 7 6 5 7 8 9 9 9 9 9 11 9 8 4 4 5 6 7 8 6 8 8 8 9 9
2 0 6 8 6 7 7 3 10 12 6 4 5 7 6 6 6 2 3 2 3 2 9 5 4 3 17 8 4 3 1 7 7 7 10 8 4 4 5 5 4 4 6 5 4 8 10 8 8 7 7 9 10 8 8 6 6 4 2 3 4 5 6 7 8 8 10 10 8 10 11 13 10 6 4 5 8 8 7 8 8 7 7 8 8 9
3 1 6 4 6 5 3 0 3 9 3 4 4 3 4 6 4 4 5 2 2 5 8 12 10 6 11 3 7 7 4 4 3 5 3 8 4 10 8 2 1 4 5 4 7 7 6 6 5 7 11 9 8 8 8 7 7 5 1 2 3 5 5 7 9 9 11 10 10 10 10 11 10 7 7 7 8 7 8 8 8 7 6 6 7 7
1 1 1 4 3 3 3 2 3 1 2 3 2 2 2 2 5 2 4 2 2 8 3 12 13 11 11 2 5 5 4 5 2 2 7 8 13 4 4 1 3 5 5 7 9 10 11 11 12 12 15 14 12 10 10 7 6 5 3 1 3 2 5 5 7 9 10 9 10 8 8 10 10 8 8 10 10 9 11 10 9 8 7 7 7 6
2 7 3 3 3 9 1 1 2 2 1 2 3 1 2 5 6 2 2 1 5 9 2 3 1 2 19 7 4 12 9 11 6 6 8 10 10 6 4 6 5 4 6 8 8 9 10 11 13 15 13 14 17 14 12 10 7 5 6 4 2 4 2 4 4 7 8 8 9 9 9 8 8 9 9 9 8 6 6 6 6 8 8 7 8 9
8 1 2 4 2 4 7 6 2 1 4 6 6 4 5 3 4 6 4 2 6 5 4 1 0 8 7 6 9 16 19 6 1 5 5 3 7 5 4 5 7 8 7 7 7 8 10 11 12 11 11 9 8 11 12 11 10 8 7 7 6 6 5 4 3 4 6 6 6 5 6 5 6 7 7 6 6 5 5 5 6 7 8 9 10 10
7 11 5 4 2 2 9 10 5 4 7 10 1 8 7 7 5 5 5 7 6 3 3 3 2 8 1 4 2 6 4 5 3 2 4 6 4 1 4 4 5 6 7 7 9 12 12 13 13 12 13 14 16 18 16 14 13 10 10 8 8 8 7 6 5 3 5 5 5 5 5 5 5 6 5 5 5 5 6 5 6 6 6 8 8 9
10 10 5 5 1 6 9 3 6 4 2 3 3 3 2 9 5 8 3 3 5 3 2 2 7 4 8 2 11 6 10 8 6 3 4 3 5 3 6 7 8 8 10 10 10 12 13 12 12 12 13 13 11 12 13 16 13 13 12 9 7 6 7 6 5 4 4 5 4 5 5 6 5 5 4 4 4 5 6 8 8 8 7 6 6 6
0 6 2 2 3 6 8 4 2 4 6 2 5 6 9 1 4 3 3 1 3 1 12 2 7 11 8 15 11 4 2 4 6 3 4 3 8 7 8 7 8 10 11 11 11 11 13 13 13 12 12 12 14 16 16 15 14 13 11 11 12 10 8 7 6 5 4 4 4 5 5 5 5 6 7 6 6 6 6 7 8 9 9 7 6 6
7 10 1 5 3 4 0 1 1 0 3 7 2 7 2 2 1 2 5 1 3 9 8 4 10 11 4 12 3 4 8 3 4 4 3 3 6 9 8 9 12 12 11 10 10 11 12 12 13 13 13 14 14 14 15 14 11 11 11 9 9 9 10 9 8 7 5 5 5 5 5 5 6 6 6 6 6 6 6 7 7 7 7 10 10 9
2 8 7 6 7 2 1 2 4 0 2 7 7 1 2 4 3 1 4 4 6 9 5 5 12 12 10 15 10 8 10 2 3 6 9 13 13 12 12 13 12 12 12 13 12 11 11 11 12 12 13 13 14 13 13 12 13 14 13 12 11 12 9 8 7 7 6 4 4 4 6 6 7 7 7 6 6 6 7 8 8 9 10 8 9 9
0 8 4 2 3 2 1 4 7 5 1 1 1 2 1 1 5 3 6 2 1 8 3 5 9 8 7 7 11 15 2 0 2 10 10 10 12 12 12 12 12 12 11 10 10 9 8 8 9 9 10 11 12 11 11 12 13 16 14 15 14 12 11 11 11 8 8 7 5 5 5 6 6 6 7 7 7 8 9 9 9 9 9 11 8 9
4 3 13 1 4 1 3 5 8 10 7 2 1 4 1 2 1 2 2 3 7 9 10 10 11 7 7 5 7 5 2 7 9 5 7 11 10 10 9 8 8 8 8 7 7 6 7 7 7 8 8 9 10 10 11 12 13 13 14 15 15 15 15 15 13 11 9 7 7 6 7 7 7 7 6 7 8 9 9 9 9 9 10 7 9 8
1 2 10 6 1 7 10 4 8 7 8 6 8 8 9 7 5 8 12 5 5 8 9 10 17 6 5 5 7 2 5 11 5 7 9 8 8 7 7 7 6 7 5 5 5 6 8 8 7 7 7 6 8 10 12 11 12 14 14 12 13 15 16 16 15 12 11 8 7 8 8 7 6 6 6 7 8 9 9 9 9 9 8 10 10 9
6 2 2 8 10 13 7 5 2 3 2 3 6 7 8 6 5 6 12 6 4 5 5 10 12 9 3 7 10 9 11 9 9 10 8 7 7 7 7 6 6 7 9 9 8 6 5 5 5 5 7 9 10 11 11 12 12 11 11 13 12 13 12 11 12 12 10 10 9 9 8 7 7 6 7 8 8 9 9 9 9 8 10 10 10 9
6 2 1 10 5 6 12 9 1 2 2 3 3 1 1 6 8 10 10 5 9 7 8 8 11 1 5 9 3 14 9 9 8 10 8 7 7 8 8 8 9 9 9 8 8 9 10 9 11 14 17 17 17 17 16 13 12 11 11 11 11 12 12 12 11 11 11 11 12 10 9 9 7 7 7 8 8 9 9 9 8 8 10 10 9 9
2 3 5 7 4 2 3 5 1 3 2 3 4 6 6 6 6 6 4 1 6 7 12 12 16 5 0 2 10 10 9 9 9 8 7 7 7 8 9 9 9 8 9 11 11 10 11 13 14 12 11 11 11 12 13 14 14 13 14 14 14 13 13 13 12 13 13 13 14 13 12 12 10 9 9 8 8 9 9 9 9 8 10 9 10 10
1 3 1 5 7 7 6 7 7 2 4 1 2 2 3 4 9 5 8 7 13 5 13 12 12 8 6 2 6 9 8 7 6 6 5 5 5 7 8 8 9 10 11 12 13 15 14 10 9 10 10 9 9 9 9 10 11 11 11 13 11 12 13 13 12 12 13 12 13 13 14 13 12 12 12 11 10 10 9 9 8 9 9 9 11 10
2 1 3 5 8 11 10 5 1 2 0 2 4 3 6 2 1 4 7 9 12 11 13 11 13 13 11 12 9 9 4 5 2 4 5 6 5 4 3 4 4 5 6 7 8 8 9 13 13 11 10 10 9 9 8 8 9 9 9 11 12 11 10 10 11 11 11 12 12 13 14 13 13 12 11 10 10 10 10 9 8 8 9 9 10 10
2 5 8 13 13 12 10 10 10 4 8 6 7 8 7 8 9 10 10 14 7 10 16 6 11 10 5 7 6 5 4 3 4 3 3 3 3 4 5 4 4 3 3 2 3 5 5 5 6 7 8 10 10 11 10 9 9 9 9 9 9 9 9 9 10 10 11 10 10 11 12 13 12 11 11 10 10 10 9 9 8 8 8 8 9 10
1 7 7 8 10 9 10 8 3 4 3 4 7 7 9 9 10 14 17 15 10 12 15 9 12 17 15 12 4 2 1 0 3 3 2 1 1 1 2 5 7 7 7 6 6 4 3 5 4 5 6 6 6 7 7 7 9 9 9 9 10 10 10 9 9 9 9 9 9 9 9 10 10 11 12 11 10 10 10 10 10 9 8 8 8 8
0 4 7 4 7 5 7 8 6 7 7 8 7 8 8 11 15 15 15 12 13 17 17 18 18 21 19 7 6 3 1 4 4 4 1 2 2 1 1 1 1 4 5 6 6 6 5 6 6 5 5 4 5 6 7 7 7 7 8 9 10 10 11 10 10 10 10 10 9 9 9 9 9 10 11 12 12 11 10 9 9 8 7 9 8 8
1 6 4 1 5 7 4 7 7 7 6 10 9 11 13 16 18 16 18 20 19 18 18 20 19 19 2 4 5 4 1 1 2 4 5 4 3 2 2 2 2 3 5 5 5 6 5 5 6 7 8 8 9 9 8 8 7 6 6 7 7 8 8 7 9 9 9 10 9 9 9 8 9 10 11 11 11 10 11 11 9 8 7 6 6 7
4 4 6 5 8 9 7 10 10 9 10 10 11 13 19 21 18 14 17 15 13 16 16 14 12 11 2 2 1 2 1 3 4 4 6 6 5 3 3 3 3 5 5 6 6 6 6 6 6 7 7 6 5 4 4 5 5 5 7 8 9 9 8 7 7 8 9 9 9 9 10 10 10 10 11 10 11 12 12 11 11 11 10 9 8 7
2 3 4 6 10 9 10 8 5 4 9 14 14 19 22 20 18 19 17 15 15 8 10 11 13 1 4 2 4 2 5 3 4 6 4 5 7 7 5 6 5 5 6 6 6 6 6 6 5 5 6 6 7 6 6 5 6 6 6 8 8 7 7 7 8 8 8 8 9 10 10 10 10 10 10 9 9 9 9 10 11 11 11 11 9 7
4 7 9 4 8 8 11 5 1 4 14 16 9 2 6 14 11 13 11 10 7 4 5 2 2 4 2 3 4 3 2 4 3 5 4 6 6 5 7 7 6 6 6 7 7 7 6 5 5 5 5 6 6 5 5 4 5 5 6 7 8 8 8 9 9 8 8 7 7 8 9 10 10 10 10 10 10 9 8 9 9 10 9 9 9 8
12 11 10 3 6 8 4 4 9 16 16 6 2 2 1 1 3 9 10 6 7 1 3 4 3 3 7 6 7 7 7 5 4 6 8 7 6 7 8 7 7 6 6 6 6 6 5 6 5 5 6 5 6 5 5 6 5 6 7 7 8 8 8 9 9 9 9 9 9 8 8 9 9 9 10 10 9 9 9 9 9 9 8 7 8 8
9 11 4 3 3 2 1 4 7 10 2 5 7 2 2 2 1 2 4 5 5 4 5 4 4 4 3 5 5 6 6 6 3 6 9 10 9 10 9 8 7 6 7 7 7 8 7 6 7 6 7 5 4 5 3 4 3 6 8 8 8 8 7 7 8 10 9 9 9 9 9 9 11 10 9 9 8 9 10 10 10 10 9 7 8 7
13 5 3 7 4 8 4 9 14 8 17 14 13 3 4 2 3 4 6 5 8 4 6 4 5 4 5 6 7 6 3 1 5 9 9 12 12 12 12 9 7 7 7 7 6 8 8 6 7 7 6 6 5 5 5 3 3 5 7 8 7 7 8 7 8 9 9 8 10 10 11 11 12 13 11 9 9 9 9 9 10 10 7 8 8 8
8 10 6 6 5 7 3 5 5 4 9 3 2 3 2 2 1 1 7 6 4 6 2 3 3 6 6 8 7 5 1 2 5 9 6 7 9 11 10 8 7 7 7 7 7 6 7 7 6 6 6 7 7 6 4 3 4 6 7 7 7 8 9 9 9 9 8 9 9 11 11 11 12 14 13 11 11 11 11 10 8 8 7 8 10 9
4 7 7 9 5 4 4 7 8 9 7 4 3 3 5 2 2 2 4 6 1 6 5 5 7 7 7 6 8 3 1 4 8 9 9 5 7 7 9 9 8 8 8 8 8 8 7 7 7 7 6 6 8 7 3 3 4 5 7 8 8 7 9 9 10 9 9 10 11 11 11 11 12 13 12 12 12 12 13 13 11 10 8 8 8 9
4 3 4 6 9 8 7 7 10 4 2 1 4 2 4 2 2 3 9 6 3 9 7 8 10 8 7 8 5 4 6 7 9 11 11 9 10 12 10 10 8 8 8 8 7 7 7 6 4 6 7 8 9 6 4 2 4 5 8 9 7 8 9 10 10 9 9 10 10 10 11 11 13 13 11 12 14 13 13 12 12 11 10 10 8 9
0 1 4 9 9 11 15 10 6 7 5 3 5 5 3 3 1 3 13 3 6 8 6 6 8 9 7 6 5 5 9 11 11 12 9 5 3 7 8 7 9 8 8 8 8 5 5 6 6 8 9 8 7 6 4 3 4 8 8 9 9 10 9 10 10 9 9 10 12 12 13 12 12 13 13 12 13 13 13 12 13 13 13 12 10 8
2 2 6 1 8 10 10 11 11 6 3 4 1 6 4 2 2 9 1 5 6 7 6 8 9 9 8 9 8 9 10 11 11 10 11 11 11 10 9 9 8 7 7 6 6 4 4 4 6 7 9 8 7 7 3 3 6 9 8 8 11 10 8 9 7 7 7 10 11 12 12 12 11 11 12 13 13 13 15 14 13 13 13 12 11 13
4 1 4 5 3 1 1 6 6 8 2 3 5 2 1 5 7 4 2 4 4 6 5 5 8 9 7 9 9 10 9 10 11 12 13 13 13 13 12 10 9 9 8 6 6 3 2 5 8 9 10 9 5 4 4 4 8 10 10 11 13 8 7 7 6 8 10 11 12 12 12 11 12 13 12 13 13 14 16 15 14 14 13 13 13 13
3 3 3 5 6 8 5 6 4 3 2 0 1 1 1 6 3 5 8 12 10 9 7 6 5 8 7 8 9 8 9 10 11 11 12 13 13 13 12 9 5 5 6 5 4 5 2 5 7 10 11 11 7 5 4 5 9 11 11 15 10 6 5 5 8 9 11 12 12 13 12 12 12 12 11 11 12 12 15 16 14 13 12 12 12 12
5 9 9 10 1 3 4 5 5 2 2 4 5 6 9 9 8 8 8 8 8 9 4 3 7 7 7 8 8 9 10 11 13 13 13 14 13 10 7 5 4 5 6 8 9 5 3 7 9 11 13 13 10 7 5 5 9 12 15 13 5 7 7 8 9 10 12 13 13 13 12 12 12 13 12 12 11 12 13 15 14 13 12 11 11 11
3 5 2 3 6 4 7 13 14 8 6 13 10 8 9 11 10 7 5 6 6 8 7 8 6 7 7 6 6 7 9 11 12 13 11 8 7 8 6 5 5 4 5 7 7 6 5 7 8 11 13 16 14 11 6 7 7 12 15 10 7 8 6 8 11 13 14 14 13 13 13 14 15 14 12 14 11 12 11 13 13 13 13 12 11 12
9 6 4 8 9 7 11 11 7 11 12 10 11 12 9 6 8 7 7 7 9 8 7 6 7 7 7 6 7 9 11 10 8 7 7 7 8 8 8 8 9 9 9 10 10 7 8 7 10 13 14 16 17 12 8 7 7 9 10 11 9 7 7 8 11 13 14 15 14 13 12 12 12 13 13 12 11 10 11 11 12 12 13 12 12 13
7 4 7 11 12 10 16 17 14 9 8 11 10 10 12 12 11 10 10 8 6 4 4 4 4 4 3 3 4 4 7 5 5 7 8 9 10 10 10 9 10 12 12 8 7 6 8 9 11 13 14 16 17 13 11 11 11 10 9 8 6 6 7 11 12 13 15 16 14 13 12 11 15 16 14 12 12 11 12 11 12 12 14 13 13 12
4 5 4 4 7 12 13 13 14 12 12 14 14 10 10 10 11 10 5 3 3 4 6 5 5 3 4 3 4 5 7 7 3 5 8 10 11 11 10 10 11 11 12 12 10 8 10 10 13 14 15 17 15 13 14 14 13 11 9 8 6 6 9 14 15 14 15 15 12 14 11 10 12 11 13 13 12 11 12 13 14 14 15 16 14 13
2 10 7 0 10 13 12 13 6 5 8 8 8 6 3 3 2 3 3 4 6 5 6 7 5 2 3 4 4 4 4 8 7 5 9 10 11 11 11 12 11 13 13 11 10 11 13 13 13 15 17 17 14 14 14 15 14 11 8 7 7 8 12 14 14 15 15 13 11 12 11 11 11 12 11 12 13 14 14 20 26 21 17 17 22 28
9 12 6 9 10 13 14 12 7 7 8 9 10 3 4 4 2 3 3 2 2 3 3 4 7 7 4 4 2 4 6 7 9 7 10 10 11 10 10 11 12 13 14 14 14 16 15 15 15 15 17 16 13 13 14 15 15 12 10 8 9 10 13 14 14 14 15 12 12 12 13 12 12 12 12 11 13 13 15 15 16 25 31 31 30 29
Wind_Direction
124 162 169 194 219 217 221 207 217 238 12 49 149 246 260 265 282 263 267 263 247 300 252 261 272 278 280 273 278 277 283 274 265 263 269 272 277 275 276 270 267 266 266 343 20 359 327 301 280 263 244 242 238 231 213 211 211 208 206 193 206 195 185 177 175 179 179 181 176 188 200 205 180 191 188 195 198 195 195 185 188 184 184 176 175 179
86 195 218 219 221 215 225 247 294 304 303 291 277 267 272 207 277 259 290 273 74 218 282 230 278 275 278 281 273 273 271 267 260 261 271 278 271 276 270 269 271 278 292 16 16 2 355 309 284 274 264 248 244 231 213 214 212 208 203 204 204 178 186 190 187 183 187 190 192 187 195 183 177 183 190 196 191 199 196 193 192 188 183 177 180 177
200 209 224 232 237 49 48 66 85 212 251 251 244 272 306 263 261 275 252 309 296 155 273 277 276 277 280 273 261 246 249 257 265 276 261 266 274 274 272 273 297 301 331 27 0 350 295 296 301 304 293 273 247 271 233 236 223 209 206 208 190 187 189 194 190 184 194 186 191 193 181 186 180 198 200 200 196 191 197 194 193 190 189 184 181 176
273 264 239 239 216 239 280 82 113 359 238 233 260 289 254 273 310 304 238 343 313 148 299 300 297 291 272 257 255 253 250 262 277 258 252 252 267 262 266 334 313 351 348 350 352 312 306 310 307 307 292 267 283 271 267 243 226 219 214 204 194 194 194 191 193 195 193 184 175 171 138 165 173 176 162 187 178 188 179 198 190 197 189 185 185 176
224 199 250 215 192 192 229 223 161 252 267 210 216 250 280 261 243 224 276 341 307 289 229 307 289 291 254 278 294 321 270 241 260 279 272 255 246 284 323 287 37 11 3 350 332 319 334 333 323 311 298 301 280 265 256 249 239 224 218 206 198 194 194 194 189 188 168 146 135 131 92 111 112 101 162 175 205 189 189 189 195 196 184 186 181 177
275 270 115 75 142 182 201 251 221 213 258 264 211 204 235 254 270 262 283 355 359 317 355 25 334 306 334 168 286 272 352 286 271 244 248 265 36 252 270 15 42 37 325 289 290 302 291 304 307 320 316 309 275 266 264 261 253 259 258 222 206 198 192 194 189 182 169 176 166 157 158 169 178 187 181 197 196 170 188 196 155 174 190 182 188 186
227 269 184 221 134 130 171 207 234 173 240 302 264 206 228 240 243 261 281 19 290 187 318 43 98 292 169 285 268 251 346 301 270 232 260 9 309 326 317 49 52 43 288 304 304 345 353 316 324 344 342 335 311 284 280 266 244 229 221 217 213 203 194 191 186 179 179 184 186 190 191 189 188 194 211 202 167 187 188 169 183 183 173 187 186 187
141 335 62 65 110 136 153 240 232 171 200 258 237 178 199 220 229 236 214 199 248 264 292 176 163 238 301 166 233 86 180 241 253 275 282 285 313 285 44 55 40 294 11 331 323 341 285 272 11 341 325 330 330 324 322 296 275 236 222 190 194 200 195 186 182 185 190 191 192 198 204 204 206 209 205 180 190 171 175 185 181 178 184 184 189 184
154 151 128 103 126 134 198 216 168 163 162 222 251 144 187 212 212 155 173 205 231 16 304 302 96 296 253 260 347 155 185 256 265 272 281 288 284 307 53 50 351 339 321 277 271 270 292 359 356 335 336 334 336 341 336 320 304 279 253 220 184 171 160 166 180 189 200 205 201 204 206 212 221 218 195 142 152 172 167 185 176 185 182 183 190 188
294 174 209 160 135 214 223 235 167 167 195 260 104 81 71 63 59 116 113 124 320 41 272 181 192 239 281 295 105 353 315 287 256 269 284 263 244 27 52 29 329 346 316 322 301 353 356 338 334 324 307 347 354 332 325 332 328 319 305 174 179 184 161 161 175 187 199 204 201 210 215 219 216 196 162 156 170 175 171 188 187 185 181 187 186 189
227 351 159 124 201 223 161 285 181 191 157 131 103 75 18 38 42 25 63 88 37 263 254 176 199 166 280 285 169 136 215 195 250 298 285 302 13 73 93 168 287 303 336 324 343 347 346 306 310 343 4 353 358 354 349 356 354 348 15 148 161 195 166 160 172 184 199 202 206 214 219 225 223 203 176 180 183 169 172 191 186 185 187 181 195 188
154 85 167 245 123 95 102 85 39 31 142 128 83 132 40 320 18 25 341 28 192 273 231 193 182 175 222 310 323 248 272 231 212 333 310 317 305 103 114 246 326 0 323 353 8 348 340 355 6 7 8 4 357 4 7 353 345 354 0 53 165 180 193 187 183 179 194 200 213 217 217 220 222 206 203 206 197 188 187 187 181 175 173 187 188 188
272 201 235 304 208 161 120 161 313 38 22 97 93 86 241 278 25 315 29 292 199 226 295 336 168 341 245 242 287 302 277 268 222 228 250 264 283 329 56 342 350 323 10 6 354 348 357 13 4 2 2 1 5 1 353 354 346 351 4 18 0 270 285 230 208 201 195 199 211 215 219 221 217 218 217 219 219 199 204 192 183 174 187 171 182 194
278 243 134 227 299 196 143 172 229 280 196 140 172 160 113 252 240 260 260 259 305 298 286 131 344 255 290 298 223 239 261 303 228 219 258 267 267 286 318 345 357 356 348 337 342 356 11 9 9 5 0 8 10 1 356 358 5 2 10 6 357 321 338 318 282 241 218 219 220 223 232 238 229 232 220 221 224 205 211 199 201 194 193 191 198 190
323 295 259 146 249 156 180 207 183 168 156 200 62 158 193 160 160 224 203 236 226 220 305 274 102 234 47 245 272 248 277 290 261 258 245 249 275 317 334 350 18 359 351 348 356 18 18 14 11 11 7 7 7 8 13 11 5 5 19 7 357 341 338 341 317 308 255 246 237 233 232 230 237 243 244 234 220 193 193 206 212 208 205 204 202 204
208 238 252 217 163 145 180 193 115 99 98 197 162 70 52 236 116 239 200 193 273 295 330 233 213 215 235 341 297 242 264 280 302 321 353 342 25 50 54 31 11 8 6 11 21 24 24 16 13 16 17 13 15 16 15 14 8 9 6 4 4 348 331 337 333 304 283 268 265 248 242 239 235 246 256 250 234 224 196 199 204 213 212 218 208 207
331 273 258 16 41 165 200 140 210 149 242 197 104 200 216 122 163 282 325 218 82 42 256 167 294 271 296 288 275 307 71 14 3 3 16 19 46 64 44 29 32 27 23 29 34 32 22 16 17 19 17 15 15 19 20 17 12 13 7 1 354 350 345 342 322 289 272 274 269 262 244 239 236 231 232 233 237 230 213 205 211 213 211 209 212 212
238 271 175 118 251 266 126 145 157 9 152 103 186 238 129 167 113 156 231 337 194 232 250 187 250 274 323 288 41 28 111 40 21 8 328 325 46 42 43 43 49 39 30 28 34 33 26 21 15 13 14 16 18 18 18 17 15 16 17 14 4 351 347 334 324 309 294 274 270 263 257 240 230 238 241 235 234 223 219 216 213 213 210 210 205 196
158 278 257 217 202 197 23 126 315 280 223 180 186 277 140 234 250 240 86 248 245 241 270 228 251 262 247 263 276 274 270 310 17 357 21 19 22 18 28 39 48 41 33 28 24 23 22 17 13 12 12 11 16 14 15 14 15 21 27 20 14 6 345 326 323 316 308 288 262 252 244 232 230 222 223 223 220 220 224 225 219 216 220 213 205 202
83 252 287 5 140 175 85 118 217 215 337 74 31 318 173 107 222 203 191 198 67 263 252 234 191 249 212 242 265 272 318 194 6 24 27 38 33 30 28 27 29 33 34 28 25 22 20 18 15 14 14 13 13 15 13 14 16 21 17 18 15 11 10 2 358 340 318 306 281 271 262 258 244 240 232 225 219 221 222 223 221 221 220 221 209 209
245 174 254 165 312 94 211 183 209 170 183 197 201 252 219 193 244 108 342 171 227 259 247 272 257 234 234 237 261 313 26 27 44 43 48 50 47 39 35 31 32 40 41 37 33 32 30 24 17 14 15 15 12 15 17 18 20 18 16 15 11 10 7 9 4 356 343 320 303 281 271 265 259 250 238 238 230 233 230 225 220 222 223 212 214 202
323 236 240 216 287 215 233 214 181 192 194 194 190 213 213 221 267 261 256 179 221 224 247 246 256 235 261 284 288 13 82 57 50 80 65 57 54 47 37 39 43 44 61 65 49 34 28 30 29 26 20 19 22 25 26 20 21 23 22 14 9 7 7 2 0 360 348 341 319 301 284 277 265 257 253 246 242 239 237 234 229 226 219 216 219 200
177 183 268 233 229 241 228 244 193 207 209 222 192 232 207 214 196 222 254 228 240 230 260 257 275 244 237 304 301 339 54 58 33 53 61 45 45 42 39 35 29 36 27 27 33 44 47 38 30 30 31 34 34 31 27 24 22 19 16 13 11 12 6 1 351 350 353 352 344 331 316 302 289 273 261 255 253 250 244 241 237 225 226 226 221 210
89 202 247 254 254 290 279 272 272 132 151 296 265 208 136 212 203 233 251 252 258 252 259 258 247 301 172 233 357 70 77 63 51 43 42 35 29 25 33 25 25 24 26 25 27 22 20 18 15 19 17 13 12 11 12 13 14 13 15 15 12 9 1 359 359 354 359 359 355 350 342 333 319 302 280 267 262 260 256 251 248 232 232 233 225 217
324 249 195 274 261 332 301 328 3 359 57 213 220 233 229 263 286 281 322 80 256 225 249 253 260 253 196 341 85 82 74 55 53 45 44 42 18 21 15 16 14 15 17 19 20 19 17 20 20 19 17 15 10 8 7 7 6 6 5 7 6 1 358 359 358 0 360 359 357 358 360 353 343 332 310 289 278 271 267 262 257 249 240 235 234 227
87 289 173 210 236 256 257 246 264 265 235 234 277 276 278 203 251 268 262 251 257 212 231 244 264 248 253 31 74 78 81 71 52 53 47 54 34 17 16 9 12 13 12 11 10 12 14 11 12 14 11 11 11 10 8 6 5 2 2 2 359 357 354 355 356 357 358 358 358 357 358 357 353 346 335 321 311 294 281 271 261 252 245 235 239 233
239 290 292 278 266 261 265 297 102 68 306 194 279 334 295 273 188 231 265 257 242 259 250 247 258 273 267 281 312 353 81 104 96 51 54 29 21 11 20 14 17 22 13 11 7 353 357 6 4 358 0 2 4 6 6 5 3 3 359 356 355 353 352 349 353 352 357 355 356 355 355 354 353 347 341 331 317 311 302 291 274 257 250 237 237 235
198 238 229 253 249 257 264 268 287 297 280 272 268 263 273 279 283 273 252 253 285 299 264 240 262 281 290 295 282 307 332 93 110 112 72 70 11 11 345 353 14 23 22 350 355 6 3 341 339 350 350 355 358 356 356 360 357 356 356 352 349 348 348 348 349 350 350 352 352 354 350 347 343 345 341 335 328 318 308 299 288 270 259 247 242 237
188 261 277 275 270 276 283 291 309 305 254 268 269 280 276 273 263 256 257 261 265 253 273 290 297 287 282 273 250 197 165 209 116 100 145 197 241 310 336 358 2 350 346 353 342 341 347 339 342 331 339 342 348 355 353 348 351 348 350 352 346 347 347 345 345 345 347 346 349 347 343 339 339 338 339 338 336 332 323 316 305 293 277 260 251 243
356 256 252 269 290 299 299 292 303 306 306 294 282 272 278 270 264 260 267 269 262 263 269 275 272 267 272 255 163 182 177 152 167 192 205 214 244 236 251 270 315 299 309 314 313 319 325 330 334 335 326 336 343 347 347 350 350 348 344 345 345 342 340 343 342 343 341 344 340 338 337 336 334 336 335 337 339 335 330 321 312 303 293 278 261 254
211 274 10 103 294 272 270 284 288 282 290 286 289 287 272 267 267 269 275 271 271 268 267 263 263 267 251 136 129 142 184 242 156 214 217 216 225 237 248 273 248 272 258 275 287 297 302 317 325 331 338 338 346 343 351 345 340 337 337 337 337 330 325 331 326 335 333 332 333 332 334 336 335 334 335 334 332 334 333 331 324 312 294 279 266 259
334 278 344 353 307 279 278 283 294 316 306 296 287 279 270 263 266 258 254 256 259 266 269 275 269 260 109 119 342 138 235 201 228 235 217 226 217 238 255 282 281 284 277 276 290 290 301 306 315 323 320 320 313 313 319 324 324 335 335 336 334 328 322 320 322 323 326 322 327 331 335 336 334 334 330 332 332 331 329 327 326 322 316 308 297 276
241 298 315 301 285 264 279 286 338 341 320 288 264 251 256 266 258 260 261 264 258 276 275 261 264 24 167 179 92 229 162 261 232 272 255 234 214 215 234 249 259 265 262 271 268 271 268 278 283 295 305 308 318 320 319 325 333 332 337 334 324 323 322 323 323 321 319 320 324 330 329 330 331 328 326 327 324 319 319 321 320 319 318 312 302 300
238 250 264 237 254 286 284 307 26 343 275 259 259 243 213 246 254 258 258 258 255 172 236 241 172 150 143 177 182 226 220 241 230 258 249 269 261 248 254 264 263 255 252 251 252 254 262 270 277 276 278 280 286 298 300 326 320 318 334 323 320 326 325 327 325 325 319 319 322 321 324 321 325 322 320 321 322 321 317 316 312 307 303 299 301 293
249 259 254 184 249 261 283 12 312 263 260 269 331 265 209 252 232 248 264 229 231 250 116 86 105 106 196 189 204 219 222 233 255 257 274 255 227 237 248 262 272 267 268 271 276 275 271 275 279 288 293 296 292 300 319 321 327 330 328 328 323 318 321 322 321 321 320 322 323 324 321 321 316 316 315 317 315 318 318 315 308 304 299 298 292 291
235 239 243 258 200 5 107 218 251 262 132 278 268 250 299 69 173 83 302 228 243 179 140 145 201 193 201 210 234 231 222 250 283 264 257 256 221 227 237 249 263 266 273 278 285 285 285 280 277 279 282 276 288 285 290 293 313 336 318 320 313 311 316 316 316 315 319 324 325 325 324 323 320 316 313 307 309 312 315 315 311 306 302 296 288 276
227 231 180 263 214 229 221 213 243 334 315 293 291 252 159 170 193 173 233 281 184 206 139 183 237 236 252 249 248 250 237 342 300 282 251 237 231 217 223 233 240 251 254 261 261 269 269 266 267 266 266 275 274 280 288 299 328 319 313 314 311 314 312 314 310 309 313 316 320 322 325 325 321 317 311 310 310 310 306 309 308 306 302 291 284 284
208 208 220 222 275 205 224 284 303 293 262 290 234 305 315 224 137 134 96 293 185 221 200 163 201 227 225 243 245 247 67 345 290 280 255 233 218 219 228 229 236 240 248 257 264 265 266 265 264 269 263 273 277 269 283 314 334 321 313 307 307 311 308 309 303 304 309 310 316 319 320 321 316 311 310 313 316 314 313 308 300 290 290 289 295 290
211 213 208 213 251 263 246 236 243 258 252 174 222 188 252 197 161 200 71 288 229 177 230 190 238 236 225 229 245 152 146 239 263 278 273 217 231 222 228 239 233 235 239 241 244 252 256 254 250 258 268 270 276 277 282 311 328 317 299 300 303 301 300 300 300 307 312 314 317 317 316 314 309 303 303 311 314 317 314 312 308 303 294 273 261 265
103 207 178 224 228 233 251 255 253 234 228 266 202 227 215 147 157 55 318 304 110 224 215 192 219 237 238 230 221 180 180 229 253 261 260 236 213 220 217 234 245 248 250 250 247 235 243 255 271 278 271 269 270 279 285 306 312 297 294 295 297 295 294 295 295 300 307 310 311 310 309 307 303 299 304 312 313 314 310 307 307 303 299 291 279 273
110 337 212 214 236 239 239 254 256 266 243 200 194 199 213 171 76 255 258 243 200 218 236 196 223 231 225 230 192 192 221 221 242 259 263 258 248 256 248 238 241 239 243 247 251 252 253 257 249 255 261 266 274 283 292 319 306 286 282 283 283 277 278 283 291 301 310 313 311 309 307 305 300 304 309 311 311 309 305 303 303 302 300 294 288 277
310 105 318 299 227 229 235 247 253 282 243 201 269 156 192 79 236 224 225 139 183 216 234 211 226 234 225 222 220 217 238 243 254 268 274 268 245 237 240 245 250 259 252 252 260 251 247 262 269 275 278 272 273 270 268 274 277 276 279 278 271 270 279 279 281 292 300 300 298 297 296 296 299 308 308 308 308 308 303 299 297 295 296 295 291 287
214 123 233 221 221 290 223 250 265 263 332 95 155 57 300 126 234 176 292 272 209 256 257 237 220 251 227 246 235 240 253 267 268 265 263 265 265 262 257 250 248 255 270 281 283 261 232 276 279 274 272 277 269 259 258 257 271 277 279 275 273 284 279 286 297 303 301 296 294 293 293 296 303 301 304 301 302 301 295 294 295 294 293 289 289 285
222 264 248 250 189 249 219 227 213 215 137 170 80 219 236 202 214 308 314 301 304 303 296 291 254 240 241 237 253 261 261 269 277 275 271 268 263 261 260 260 264 279 281 277 263 286 296 274 276 282 284 283 277 264 257 254 272 276 278 273 288 292 288 299 299 298 296 294 292 295 294 296 295 292 291 292 294 292 289 289 289 288 286 287 284 284
204 196 208 240 244 182 201 239 247 211 274 256 174 232 251 273 280 275 283 288 297 295 269 254 270 263 234 237 246 256 273 266 266 268 272 269 271 275 286 298 295 291 298 300 299 309 310 280 285 288 288 287 287 277 265 249 257 270 272 277 300 288 296 295 296 296 292 291 290 289 291 292 289 289 289 287 289 288 286 287 288 287 283 280 277 273
250 196 239 336 250 253 251 256 271 282 270 280 263 251 263 274 275 279 274 287 261 259 262 264 260 259 264 251 253 262 253 263 272 278 282 296 302 299 308 310 304 298 292 296 302 311 299 294 289 287 287 290 287 284 271 259 244 263 271 285 287 289 291 293 294 293 289 288 286 286 291 292 289 285 283 284 281 277 275 277 280 279 280 279 271 268
241 230 219 237 270 284 265 262 257 259 266 267 265 270 267 245 256 272 275 254 262 268 269 250 246 263 269 288 270 272 277 283 300 311 323 316 312 309 310 310 308 308 306 305 305 319 308 297 293 290 289 289 289 291 285 270 261 259 276 285 290 291 290 289 287 287 287 284 285 286 284 284 287 290 289 282 280 273 273 271 273 273 273 270 268 268
290 181 208 238 251 236 257 262 264 255 241 253 257 268 272 277 277 273 264 271 275 276 275 302 328 309 330 307 314 314 299 337 5 335 326 314 308 307 308 310 309 308 303 300 306 312 299 292 286 287 289 287 288 296 294 287 281 279 281 283 288 295 295 287 283 283 283 283 285 284 284 283 283 284 283 281 279 280 277 270 267 267 265 266 264 262
206 85 217 176 228 248 261 266 268 275 270 265 262 254 253 261 272 277 303 353 2 7 356 9 51 21 30 14 13 6 339 321 351 322 307 301 302 303 309 311 306 301 302 310 314 310 295 297 295 291 289 285 290 295 293 289 286 287 290 293 300 298 294 289 288 284 280 279 282 281 280 276 278 276 279 279 277 266 265 272 272 267 267 259 256 255
128 247 236 205 269 264 257 262 253 280 277 271 255 257 276 321 343 314 14 44 34 23 9 351 350 40 53 36 20 353 322 305 311 320 300 296 295 301 310 312 309 308 306 307 308 303 302 297 294 294 293 292 296 295 292 292 291 293 299 304 300 296 289 289 289 286 282 280 278 278 280 279 275 274 275 277 278 281 279 268 266 264 262 267 261 258
210 235 224 228 239 258 260 259 244 227 259 259 279 55 77 10 27 41 35 42 42 50 20 10 339 334 335 339 355 323 303 303 309 322 304 299 298 305 309 310 310 311 311 315 314 309 305 303 302 301 296 296 302 298 298 296 296 298 302 304 295 291 286 285 285 282 280 279 278 279 281 281 281 279 277 273 275 273 275 283 278 266 263 262 263 263